楊-高彗星

325P/Yang-Gao (2022)

English version
Home page
Updated on June 13, 2021

---------------------------------------------------------------------

・ プロフィール

・ 軌道要素

Epoch 2022 Apr. 11.0 TT = JDT 2459680.5
T 2022 Mar. 29.17690 TT                                 MPCW
q   1.4324132            (2000.0)            P               Q
n   0.14906819     Peri.  343.70208     -0.46925766     +0.83732173
a   3.5227304      Node   257.55973     -0.77474317     -0.54281132
e   0.5933798      Incl.   16.69406     -0.42375733     +0.06517816
P   6.61
From 1097 observations 1951 May 28-2015 Sept. 6, mean residual 0".5.
     Nongravitational parameters A1 = +0.15, A2 = -0.0271.

・ 星図

・ 光度変化

        m1 = 13.5 + 5 logΔ + 15.0 log r

---------------------------------------------------------------------

軌道要素はM.P.E.C. 2019-F55に掲載されたものです。
星図はステラナビゲータ Ver.10 (アストロアーツ) で作成したものです。
光度グラフはComet for Windowsで作成したものです。

---------------------------------------------------------------------

Copyright(C) Seiichi Yoshida (comet@aerith.net). All rights reserved.